When you browse on this site, cookies collect data to enhance your experience and personalize the content and advertising you see.
Visit our Privacy Policy to learn more. By continuing to use the site, you agree to this use of cookies and data.
  • In Czech Republic
  • List of Countries
  • For 7 days
  • Water Temperature
  • Satellite Maps
  • Weather Map
  • Weather Widgets
  • user-avatar
    Login

    Hourly Weather Totonicapán

    Today, 16 July, Tuesday

    Time Temperature Precipitation Wind Pressure Humidity
    00:00 +10°C° 0 mm 1 mps 554 mmHg 91%
    01:00 +10°C° 0.2 mm 1 mps 553 mmHg 91%
    02:00 +11°C° 0.2 mm 1 mps 553 mmHg 92%
    03:00 +11°C° 0.2 mm 1 mps 553 mmHg 93%
    04:00 +10°C° 0 mm 1 mps 553 mmHg 91%
    05:00 +10°C° 0 mm 1 mps 553 mmHg 90%
    06:00 +10°C° 0 mm 1 mps 552 mmHg 88%
    07:00 +12°C° 0 mm 1 mps 554 mmHg 82%
    08:00 +14°C° 0 mm 1 mps 555 mmHg 75%
    09:00 +16°C° 0 mm 1 mps 557 mmHg 68%
    10:00 +16°C° 0.2 mm 1 mps 557 mmHg 67%
    11:00 +17°C° 0.2 mm 2 mps 557 mmHg 66%
    12:00 +17°C° 0.2 mm 2 mps 557 mmHg 65%
    13:00 +16°C° 0.7 mm 2 mps 556 mmHg 72%
    14:00 +15°C° 0.7 mm 2 mps 555 mmHg 80%
    15:00 +14°C° 0.7 mm 1 mps 554 mmHg 87%
    16:00 +13°C° 0.3 mm 1 mps 554 mmHg 87%
    17:00 +13°C° 0.3 mm 1 mps 554 mmHg 87%
    18:00 +12°C° 0.3 mm 1 mps 554 mmHg 87%
    19:00 +11°C° 0.1 mm 1 mps 554 mmHg 88%
    20:00 +11°C° 0.1 mm 1 mps 554 mmHg 89%
    21:00 +10°C° 0.1 mm 1 mps 554 mmHg 91%
    22:00 +10°C° 0 mm 1 mps 554 mmHg 91%
    23:00 +11°C° 0 mm 1 mps 554 mmHg 91%

    Tomorrow, 17 July, Wednesday

    Time Temperature Precipitation Wind Pressure Humidity
    00:00 +11°C° 0 mm 1 mps 554 mmHg 91%
    01:00 +10°C° 0 mm 1 mps 554 mmHg 89%
    02:00 +10°C° 0 mm 1 mps 553 mmHg 88%
    03:00 +9°C° 0 mm 1 mps 552 mmHg 86%
    04:00 +9°C° 0 mm 1 mps 552 mmHg 86%
    05:00 +9°C° 0 mm 1 mps 552 mmHg 85%
    06:00 +9°C° 0 mm 1 mps 552 mmHg 84%
    07:00 +11°C° 0 mm 1 mps 554 mmHg 75%
    08:00 +14°C° 0 mm 1 mps 556 mmHg 67%
    09:00 +16°C° 0 mm 1 mps 557 mmHg 58%
    10:00 +17°C° 0 mm 2 mps 558 mmHg 53%
    11:00 +19°C° 0 mm 2 mps 558 mmHg 48%
    12:00 +20°C° 0 mm 3 mps 559 mmHg 43%
    13:00 +19°C° 0.1 mm 3 mps 558 mmHg 46%
    14:00 +19°C° 0.1 mm 3 mps 558 mmHg 49%
    15:00 +19°C° 0.1 mm 3 mps 557 mmHg 51%
    16:00 +17°C° 0.3 mm 3 mps 556 mmHg 64%
    17:00 +16°C° 0.3 mm 2 mps 555 mmHg 76%
    18:00 +14°C° 0.3 mm 2 mps 555 mmHg 89%
    19:00 +13°C° 0.2 mm 2 mps 554 mmHg 90%
    20:00 +10°C° 0.2 mm 2 mps 554 mmHg 92%
    21:00 +9°C° 0.2 mm 2 mps 553 mmHg 94%
    22:00 +10°C° 0 mm 1 mps 553 mmHg 94%
    23:00 +10°C° 0 mm 1 mps 553 mmHg 93%

    Day after tomorrow, 18 July, Thursday

    Time Temperature Precipitation Wind Pressure Humidity
    00:00 +10°C° 0 mm 1 mps 553 mmHg 93%
    01:00 +10°C° 0 mm 1 mps 553 mmHg 93%
    02:00 +10°C° 0 mm 1 mps 552 mmHg 92%
    03:00 +9°C° 0 mm 1 mps 552 mmHg 91%
    04:00 +9°C° 0 mm 1 mps 552 mmHg 90%
    05:00 +9°C° 0 mm 1 mps 552 mmHg 89%
    06:00 +9°C° 0 mm 1 mps 552 mmHg 88%
    07:00 +12°C° 0 mm 1 mps 554 mmHg 80%
    08:00 +14°C° 0 mm 1 mps 556 mmHg 72%
    09:00 +18°C° 0 mm 1 mps 557 mmHg 65%
    10:00 +17°C° 0.4 mm 2 mps 557 mmHg 67%
    11:00 +17°C° 0.4 mm 2 mps 557 mmHg 70%
    12:00 +18°C° 0.4 mm 2 mps 557 mmHg 72%
    13:00 +17°C° 1.7 mm 2 mps 556 mmHg 77%
    14:00 +16°C° 1.7 mm 2 mps 556 mmHg 82%
    15:00 +16°C° 1.7 mm 2 mps 555 mmHg 86%
    16:00 +15°C° 1.1 mm 2 mps 555 mmHg 89%
    17:00 +14°C° 1.1 mm 1 mps 554 mmHg 92%
    18:00 +13°C° 1.1 mm 1 mps 554 mmHg 95%
    19:00 +12°C° 0.2 mm 1 mps 554 mmHg 95%
    20:00 +11°C° 0.2 mm 1 mps 554 mmHg 95%
    21:00 +11°C° 0.2 mm 1 mps 554 mmHg 94%
    22:00 +10°C° 0 mm 1 mps 553 mmHg 94%
    23:00 +10°C° 0 mm 1 mps 553 mmHg 94%

    19 July, Friday

    Time Temperature Precipitation Wind Pressure Humidity
    00:00 +10°C° 0 mm 1 mps 553 mmHg 93%
    01:00 +9°C° 0 mm 1 mps 552 mmHg 91%
    02:00 +9°C° 0 mm 1 mps 552 mmHg 89%
    03:00 +9°C° 0 mm 1 mps 551 mmHg 87%
    04:00 +8°C° 0 mm 1 mps 551 mmHg 85%
    05:00 +8°C° 0 mm 1 mps 551 mmHg 84%
    06:00 +8°C° 0 mm 1 mps 551 mmHg 82%
    07:00 +11°C° 0 mm 1 mps 553 mmHg 75%
    08:00 +13°C° 0 mm 1 mps 555 mmHg 67%
    09:00 +16°C° 0 mm 1 mps 557 mmHg 59%
    10:00 +17°C° 0 mm 2 mps 557 mmHg 56%
    11:00 +18°C° 0 mm 2 mps 558 mmHg 53%
    12:00 +19°C° 0 mm 3 mps 558 mmHg 50%
    13:00 +19°C° 0.4 mm 3 mps 557 mmHg 57%
    14:00 +18°C° 0.4 mm 3 mps 556 mmHg 63%
    15:00 +17°C° 0.4 mm 3 mps 555 mmHg 70%
    16:00 +16°C° 0.3 mm 2 mps 555 mmHg 75%
    17:00 +15°C° 0.3 mm 2 mps 555 mmHg 80%
    18:00 +14°C° 0.3 mm 1 mps 554 mmHg 85%
    19:00 +13°C° 0.2 mm 1 mps 554 mmHg 89%
    20:00 +12°C° 0.2 mm 1 mps 554 mmHg 92%
    21:00 +10°C° 0.2 mm 1 mps 553 mmHg 96%
    22:00 +10°C° 0 mm 1 mps 553 mmHg 96%
    23:00 +10°C° 0 mm 1 mps 553 mmHg 95%

    20 July, Saturday

    Time Temperature Precipitation Wind Pressure Humidity
    00:00 +9°C° 0 mm 1 mps 553 mmHg 94%
    01:00 +9°C° 0 mm 1 mps 552 mmHg 92%
    02:00 +9°C° 0 mm 1 mps 552 mmHg 90%
    03:00 +9°C° 0 mm 1 mps 551 mmHg 88%
    04:00 +9°C° 0 mm 1 mps 551 mmHg 86%
    05:00 +8°C° 0 mm 1 mps 551 mmHg 84%
    06:00 +8°C° 0 mm 1 mps 551 mmHg 82%
    07:00 +11°C° 0 mm 1 mps 553 mmHg 72%
    08:00 +14°C° 0 mm 1 mps 555 mmHg 61%
    09:00 +18°C° 0 mm 1 mps 557 mmHg 51%
    10:00 +19°C° 0 mm 2 mps 557 mmHg 50%
    11:00 +20°C° 0 mm 2 mps 558 mmHg 48%
    12:00 +21°C° 0 mm 3 mps 558 mmHg 47%
    13:00 +20°C° 0.3 mm 3 mps 557 mmHg 52%
    14:00 +19°C° 0.3 mm 3 mps 557 mmHg 57%
    15:00 +19°C° 0.3 mm 3 mps 556 mmHg 62%
    16:00 +17°C° 0.4 mm 2 mps 555 mmHg 71%
    17:00 +16°C° 0.4 mm 2 mps 555 mmHg 80%
    18:00 +15°C° 0.4 mm 1 mps 554 mmHg 89%
    19:00 +13°C° 0.3 mm 1 mps 554 mmHg 90%
    20:00 +12°C° 0.3 mm 1 mps 553 mmHg 91%
    21:00 +11°C° 0.3 mm 1 mps 553 mmHg 92%
    22:00 +10°C° 0.1 mm 1 mps 553 mmHg 92%
    23:00 +10°C° 0.1 mm 1 mps 553 mmHg 91%

    21 July, Sunday

    Time Temperature Precipitation Wind Pressure Humidity
    00:00 +9°C° 0.1 mm 0 mps 553 mmHg 91%
    01:00 +10°C° 0.3 mm 1 mps 553 mmHg 92%
    02:00 +10°C° 0.3 mm 1 mps 552 mmHg 94%
    03:00 +10°C° 0.3 mm 1 mps 552 mmHg 95%
    04:00 +10°C° 0.1 mm 1 mps 552 mmHg 93%
    05:00 +10°C° 0.1 mm 1 mps 552 mmHg 92%
    06:00 +10°C° 0.1 mm 1 mps 552 mmHg 91%
    07:00 +12°C° 0 mm 1 mps 554 mmHg 81%
    08:00 +15°C° 0 mm 1 mps 555 mmHg 71%
    09:00 +18°C° 0 mm 1 mps 557 mmHg 61%
    10:00 +19°C° 0.2 mm 1 mps 557 mmHg 60%
    11:00 +19°C° 0.2 mm 2 mps 557 mmHg 58%
    12:00 +19°C° 0.2 mm 2 mps 557 mmHg 56%
    13:00 +19°C° 1.2 mm 2 mps 556 mmHg 62%
    14:00 +18°C° 1.2 mm 2 mps 556 mmHg 67%
    15:00 +17°C° 1.2 mm 2 mps 555 mmHg 73%
    16:00 +16°C° 0.7 mm 2 mps 555 mmHg 78%
    17:00 +15°C° 0.7 mm 1 mps 554 mmHg 84%
    18:00 +14°C° 0.7 mm 1 mps 554 mmHg 89%
    19:00 +13°C° 0.3 mm 1 mps 553 mmHg 90%
    20:00 +11°C° 0.3 mm 1 mps 553 mmHg 90%
    21:00 +10°C° 0.3 mm 1 mps 553 mmHg 91%
    22:00 +10°C° 0 mm 1 mps 553 mmHg 90%
    23:00 +10°C° 0 mm 1 mps 553 mmHg 90%
    Show more